Location: Cartignies
(50.0929°N, 3.8447°E)
Time: 14:32:08
(UTC+00:00)

NOSS 3-1 (C) - Pass Details

Date: 12 January 2026
Orbit: 618 x 1583 km, 63.4° (Epoch: 10 January)

Event Time Altitude Azimuth Distance (km) Brightness Sun altitude
Rises 18:05:13 0° 310° (NW) 3,468 6.9 -18.3°
Reaches altitude 10° 18:07:44 10° 320° (NW) 2,660 6.1 -18.7°
Maximum altitude 18:13:30 35° 26° (NNE) 1,706 4.5 -19.6°
Enters shadow 18:15:43 29° 59° (ENE) 1,982 4.6 -19.9°
